{"data":{"norad_id":56418,"intl_designator":"2023-061AW","name":"STARLINK-5356","alt_names":[],"object_type":"PAYLOAD","status":"ACTIVE","operator":null,"country":"US","launch_date":"2023-05-04","launch_site_code":"AFETR","launch_vehicle":null,"mission":null,"orbit_class":"UNKNOWN","rcs_meters":null,"size_class":null,"mass_kg":null,"dimensions":null,"purposes":["comms"],"wikipedia_slug":null,"has_3d_model":false,"image_url":null,"decayed_at":null,"tle_current":{"epoch":"2026-05-24T22:39:53.616384Z","epoch_age_seconds":86770,"freshness":"FRESH","line1":"1 56418U 23061AW  26144.94437056  .00014264  00000+0  52737-3 0  9994","line2":"2 56418  43.0035 108.7526 0001122 263.1490  96.9234 15.27548263168620","mean_motion":15.27548263,"eccentricity":0.0001122,"inclination_deg":43.0035,"raan_deg":108.7526,"arg_perigee_deg":263.149,"mean_anomaly_deg":96.9234,"bstar":0.00052737,"rev_number":16862,"period_min":94.268707240185,"perigee_km":482.37429393758,"apogee_km":483.91396542308,"semimajor_km":6861.2811296803,"source":"CELESTRAK","updated_at":"2026-05-25T13:38:18.062745Z"}}}